FW8773 Weather Reports


Display with metric or nautical units.
time (UTC)temp
F
wind
direction
speed
MPH
gust
MPH
rain 1hr
in
rain 24hr
in
rain mn
in
humidity
%
barometer
mb
20260507134501 47 263 2.0 9.0 0.00 0.04 0.00 74 1016.0
20260507133058 45 245 3.0 11.0 0.00 0.04 0.00 76 1016.2
20260507131601 43 261 2.0 8.0 0.00 0.04 0.00 78 1016.0
20260507130054 42 252 3.0 9.0 0.00 0.04 0.00 79 1016.1
20260507124551 41 260 2.0 6.0 0.00 0.04 0.00 80 1015.8
20260507123042 40 243 2.0 9.0 0.00 0.04 0.00 82 1015.7
20260507121536 39 243 1.0 7.0 0.00 0.04 0.00 82 1016.1
20260507120031 39 246 2.0 6.0 0.00 0.04 0.00 83 1015.9
20260507114550 38 252 2.0 8.0 0.00 0.05 0.00 83 1016.2
20260507113048 38 240 2.0 5.0 0.00 0.05 0.00 84 1016.4
20260507111535 38 236 2.0 5.0 0.00 0.05 0.00 84 1016.4
20260507110025 38 248 1.0 6.0 0.00 0.05 0.00 85 1016.4
20260507104527 38 238 2.0 5.0 0.00 0.06 0.00 85 1016.8
20260507103025 38 243 2.0 5.0 0.00 0.06 0.00 85 1016.8
20260507101520 38 246 2.0 5.0 0.00 0.06 0.00 85 1017.1
20260507100017 38 227 2.0 6.0 0.00 0.06 0.00 85 1017.1
20260507094517 38 246 2.0 10.0 0.00 0.06 0.00 84 1017.2
20260507093014 39 216 2.0 10.0 0.00 0.06 0.00 85 1017.5
20260507091512 38 253 2.0 8.0 0.00 0.06 0.00 86 1017.6
20260507090010 38 244 2.0 6.0 0.00 0.07 0.00 87 1017.9
20260507084508 37 248 1.0 5.0 0.00 0.07 0.00 87 1018.2
20260507083006 37 242 2.0 10.0 0.00 0.07 0.00 87 1018.3
20260507081506 37 360 2.0 9.0 0.00 0.07 0.00 88 1018.5
20260507080001 37 360 2.0 11.0 0.00 0.08 0.00 88 1018.8
20260507074603 37 360 4.0 11.0 0.00 0.08 0.00 88 1018.9
20260507073100 37 239 4.0 10.0 0.00 0.08 0.00 87 1019.2
20260507071554 37 360 4.0 9.0 0.00 0.08 0.00 88 1019.4
20260507070052 38 150 2.0 10.0 0.00 0.08 0.00 87 1019.6
20260507064552 38 360 3.0 11.0 0.00 0.08 0.00 88 1019.8
20260507063047 38 360 3.0 10.0 0.00 0.08 0.00 88 1020.0
20260507061545 38 360 8.0 12.0 0.00 0.08 0.00 88 1020.3
20260507060042 38 360 6.0 10.0 0.00 0.08 0.00 87 1020.3
20260507054539 39 360 5.0 11.0 0.00 0.09 0.00 87 1020.4
20260507053038 39 360 3.0 12.0 0.00 0.09 0.00 87 1020.4
20260507051535 40 360 3.0 12.0 0.00 0.09 0.00 87 1020.4
20260507050032 40 230 4.0 11.0 0.00 0.09 0.00 87 1020.6
20260507044531 39 225 5.0 12.0 0.00 0.10 0.09 87 1020.8
20260507043033 39 214 2.0 7.0 0.00 0.10 0.09 86 1020.9
20260507041529 40 190 2.0 6.0 0.00 0.10 0.09 85 1021.0
20260507040028 41 360 2.0 7.0 0.00 0.10 0.09 85 1020.9
20260507034534 41 223 3.0 8.0 0.00 0.12 0.09 85 1020.9
20260507033028 41 228 2.0 9.0 0.00 0.12 0.09 85 1021.1
20260507031527 41 360 1.0 9.0 0.00 0.12 0.09 85 1021.0
20260507030027 42 360 1.0 8.0 0.00 0.12 0.09 84 1021.1
20260507024523 42 360 1.0 5.0 0.00 0.13 0.09 83 1021.1
20260507023022 43 360 2.0 6.0 0.00 0.13 0.09 82 1021.0
20260507021522 44 360 2.0 6.0 0.00 0.13 0.09 81 1020.9
20260507020041 44 360 1.0 5.0 0.00 0.13 0.09 80 1020.9
20260507014519 45 360 3.0 9.0 0.00 0.14 0.09 79 1020.9
20260507013022 45 360 7.0 10.0 0.00 0.14 0.09 78 1020.9
20260507011530 46 266 7.0 12.0 0.00 0.14 0.09 77 1020.9
20260507010017 46 360 8.0 13.0 0.00 0.14 0.09 76 1020.7
20260507004515 47 241 11.0 14.0 0.00 0.15 0.09 75 1020.6
20260507003013 47 241 10.0 17.0 0.00 0.15 0.09 76 1020.7
20260507001538 46 239 10.0 14.0 0.00 0.15 0.09 79 1021.1
20260507000013 46 282 5.0 10.0 0.00 0.15 0.09 79 1021.0
20260506234507 46 240 10.0 15.0 0.00 0.15 0.09 75 1020.9
20260506233006 47 259 11.0 15.0 0.00 0.15 0.09 76 1021.0
20260506231608 46 360 9.0 14.0 0.00 0.15 0.09 75 1020.9
20260506230005 47 360 5.0 15.0 0.00 0.16 0.09 76 1020.9
20260506224504 47 360 11.0 15.0 0.00 0.16 0.09 75 1020.9
20260506223004 47 360 10.0 16.0 0.00 0.16 0.09 76 1020.9
20260506221504 47 360 10.0 17.0 0.00 0.16 0.09 76 1020.9
20260506220003 49 221 4.0 10.0 0.00 0.17 0.09 74 1020.9
20260506214501 49 360 4.0 10.0 0.00 0.17 0.09 72 1021.2
20260506213106 50 360 3.0 11.0 0.00 0.17 0.09 72 1021.2
20260506211558 49 360 4.0 10.0 0.00 0.17 0.09 73 1021.5
20260506210100 49 360 1.0 8.0 0.00 0.17 0.09 76 1021.6
20260506204557 48 360 4.0 9.0 0.00 0.17 0.09 77 1021.8
20260506203110 47 360 3.0 8.0 0.00 0.17 0.09 75 1021.8
20260506201548 46 360 1.0 4.0 0.01 0.17 0.09 80 1021.8
20260506200054 45 294 1.0 3.0 0.01 0.17 0.09 83 1021.9
20260506194547 44 360 1.0 6.0 0.01 0.17 0.09 82 1022.1
20260506193050 44 360 1.0 4.0 0.01 0.17 0.09 81 1022.1
20260506191545 46 360 0.0 4.0 0.00 0.16 0.08 79 1022.1
20260506190045 44 14 0.0 0.0 0.00 0.16 0.08 80 1022.2
20260506184545 43 14 0.0 2.0 0.00 0.17 0.08 81 1022.5
20260506183114 43 14 0.0 2.0 0.00 0.17 0.08 82 1022.5
20260506181545 42 15 0.0 3.0 0.00 0.17 0.08 83 1022.5
20260506180038 42 48 1.0 5.0 0.01 0.17 0.08 82 1022.7
20260506174538 43 32 2.0 5.0 0.01 0.17 0.08 83 1022.7
20260506173039 43 28 0.0 4.0 0.01 0.17 0.08 84 1022.7
20260506171535 42 44 0.0 4.0 0.01 0.17 0.08 85 1022.7
20260506170031 42 53 3.0 6.0 0.00 0.16 0.07 85 1022.7
20260506164544 42 26 1.0 4.0 0.00 0.16 0.07 85 1022.7
20260506163025 42 35 2.0 4.0 0.00 0.16 0.07 87 1022.5
20260506161523 41 35 1.0 5.0 0.00 0.16 0.07 88 1022.2
20260506160021 41 69 1.0 4.0 0.00 0.16 0.07 90 1022.0
20260506154520 41 71 1.0 6.0 0.01 0.16 0.07 91 1021.6
20260506153020 41 360 1.0 6.0 0.01 0.16 0.07 92 1021.6
20260506151516 40 223 1.0 8.0 0.01 0.16 0.07 93 1021.6
20260506150010 39 360 0.0 6.0 0.01 0.17 0.07 93 1021.7
20260506144511 38 360 1.0 5.0 0.00 0.16 0.06 93 1022.0
20260506143004 37 360 0.0 3.0 0.00 0.16 0.06 92 1022.0
20260506141514 37 325 0.0 0.0 0.01 0.16 0.06 92 1022.1
20260506140003 37 325 0.0 0.0 0.01 0.16 0.06 92 1022.0